Kapolei, HI

12:41 AM HST on January 24, 2017 (GMT -1000)
Kalaeloa (John Rodgers Field)

Weather History for PHJR - December, 2013

Change the Weather History Date:

Monday, December 16, 2013

  Actual Average (PHNL) Record (PHNL)
Temperature  
Mean Temperature 72 °F -  
Max Temperature 80 °F 81 °F 88 °F (1995)
Min Temperature 64 °F 66 °F 56 °F (1989)
Cooling Degree Days 7    
Growing Degree Days 22 (Base 50)    
Moisture  
Dew Point 65 °F    
Average Humidity 82    
Maximum Humidity 97    
Minimum Humidity 54    
Precipitation  
Precipitation 0.01 in - - ()
Sea Level Pressure  
Sea Level Pressure 29.99 in    
Wind  
Wind Speed 3 mph (NNW)    
Max Wind Speed 10 mph    
Max Gust Speed -    
Visibility 10 miles    
Events Rain    
Averages and records for this station are not official NWS values.
T = Trace of Precipitation, MM = Missing Value Source: NWS Daily Summary

Daily Weather History Graph

Daily Weather History Graph

Search for Another Location

Airport or City:

Trip Planner

Search our weather history database for the weather conditions in past years. The results will help you decide how hot, cold, wet, or windy it might be!

Date:

Astronomy

Dec. 16, 2013 Rise Set
Actual Time 7:02 AM HST 5:53 PM HST
Civil Twilight 6:38 AM HST 6:17 PM HST
Nautical Twilight 6:10 AM HST 6:45 PM HST
Astronomical Twilight 5:43 AM HST 7:12 PM HST
Moon 5:46 PM HST (12/16) 6:27 AM HST (12/16)
Length of Visible Light 11h 39m
Length of Day
10h 50m
Full, 100% of the Moon is Illuminated
Dec 16
Full
Dec 16
Full
Dec 25
Last Quarter
Jan 1
New
Jan 7
First Quarter

Hourly Weather History & Observations

Time (HST) Temp. Heat Index Dew Point Humidity Pressure Visibility Wind Dir Wind Speed Gust Speed Precip Events Conditions
12:53 AM 66.9 °F - 64.9 °F 93% 29.96 in 10.0 mi Calm Calm - N/A   Overcast
1:53 AM 66.9 °F - 64.9 °F 93% 29.96 in 10.0 mi ENE 3.5 mph - 0.00 in Rain Light Rain
2:53 AM 66.9 °F - 66.0 °F 97% 29.96 in 10.0 mi Calm Calm - 0.00 in   Overcast
3:53 AM 66.9 °F - 64.9 °F 93% 29.96 in 10.0 mi Calm Calm - 0.00 in   Overcast
4:53 AM 70.0 °F - 68.0 °F 93% 29.98 in 10.0 mi West 6.9 mph - N/A   Overcast
5:53 AM 68.0 °F - 66.9 °F 96% 29.98 in 10.0 mi West 6.9 mph - 0.01 in   Overcast
6:53 AM 66.9 °F - 66.0 °F 97% 30.00 in 10.0 mi Calm Calm - N/A   Scattered Clouds
7:53 AM 70.0 °F - 68.0 °F 93% 30.01 in 10.0 mi Calm Calm - N/A   Mostly Cloudy
8:53 AM 73.0 °F - 68.0 °F 84% 30.03 in 10.0 mi WNW 5.8 mph - N/A   Mostly Cloudy
9:53 AM 70.0 °F - 68.0 °F 93% 30.04 in 10.0 mi WNW 9.2 mph - 0.00 in   Overcast
10:53 AM 73.0 °F - 69.1 °F 87% 30.02 in 10.0 mi WNW 6.9 mph - N/A   Mostly Cloudy
11:53 AM 77.0 °F - 66.9 °F 71% 29.99 in 10.0 mi Calm Calm - N/A   Clear
12:53 PM 79.0 °F - 68.0 °F 69% 29.96 in 10.0 mi WSW 9.2 mph - N/A   Clear
1:53 PM 78.1 °F - 66.9 °F 68% 29.95 in 10.0 mi WNW 10.4 mph - N/A   Clear
2:53 PM 78.1 °F - 66.0 °F 66% 29.94 in 10.0 mi NW 9.2 mph - N/A   Scattered Clouds
3:53 PM 80.1 °F 81.2 °F 62.1 °F 54% 29.94 in 10.0 mi Variable 4.6 mph - N/A   Mostly Cloudy
4:53 PM 77.0 °F - 62.1 °F 60% 29.96 in 10.0 mi Variable 4.6 mph - N/A   Scattered Clouds
5:53 PM 73.0 °F - 60.1 °F 64% 29.96 in 10.0 mi ENE 5.8 mph - N/A   Clear
6:53 PM 71.1 °F - 61.0 °F 70% 29.98 in 10.0 mi ENE 3.5 mph - N/A   Clear
7:53 PM 69.1 °F - 62.1 °F 78% 30.01 in 10.0 mi ENE 3.5 mph - N/A   Clear
8:08 PM 68.0 °F - 62.6 °F 83% 29.99 in 10.0 mi Variable 4.6 mph - N/A   Partly Cloudy
8:53 PM 66.9 °F - 61.0 °F 81% 30.02 in 10.0 mi NE 3.5 mph - N/A   Clear
9:16 PM 66.2 °F - 60.8 °F 83% 30.01 in 10.0 mi Variable 3.5 mph - N/A   Partly Cloudy
9:53 PM 64.9 °F - 61.0 °F 87% 30.03 in 10.0 mi ENE 4.6 mph - N/A   Partly Cloudy
10:53 PM 64.9 °F - 62.1 °F 90% 30.03 in 10.0 mi NE 4.6 mph - N/A   Clear
11:53 PM 66.0 °F - 61.0 °F 84% 30.02 in 10.0 mi Calm Calm - N/A   Clear